Orbital elements of YAOGAN-31 01A
| Launched | 9 April 2018 |
| Flight ended | – |
| Launch site | Jiuquan Space Center, PRC |
| Owner | People's Republic of China |
| NORAD ID | 43275 |
| Date fetched |
Epoch osculation |
Inc. [°] |
Ecc. | RA asc node [hr] |
Arg Peri. [°] |
Mean anom [°] |
Mean motion [rev/day] |
Abs. mag |
| Date fetched |
Epoch osculation |
Inc. [°] |
Ecc. | RA asc node [hr] |
Arg Peri. [°] |
Mean anom [°] |
Mean motion [rev/day] |
Abs. mag |
| 2026 May 04 17:57 | 2026 May 04 12:13:16 | 63.3951 | 0.02716 | 13.5777 | 7.2862 | 353.1988 | 13.45457 | – |
| 2026 May 03 17:57 | 2026 May 03 13:01:55 | 63.3954 | 0.02715 | 13.7434 | 7.2879 | 353.1988 | 13.45457 | – |
| 2026 May 02 17:57 | 2026 May 02 12:03:33 | 63.3956 | 0.02714 | 13.9219 | 7.2848 | 353.1988 | 13.45457 | – |
| 2026 May 01 17:56 | 2026 May 01 12:52:12 | 63.3955 | 0.02713 | 14.0876 | 7.2807 | 353.1988 | 13.45457 | – |
| 2026 Apr 30 17:56 | 2026 Apr 30 11:53:49 | 63.3953 | 0.02712 | 14.2661 | 7.2814 | 353.1988 | 13.45457 | – |
| 2026 Apr 29 17:57 | 2026 Apr 29 12:42:28 | 63.3952 | 0.02711 | 14.4318 | 7.2799 | 353.1988 | 13.45457 | – |
| 2026 Apr 28 17:56 | 2026 Apr 28 13:31:07 | 63.3949 | 0.02710 | 14.5976 | 7.2784 | 353.1988 | 13.45457 | – |
| 2026 Apr 27 17:58 | 2026 Apr 27 12:32:45 | 63.3947 | 0.02709 | 14.7760 | 7.2808 | 353.1988 | 13.45457 | – |
| 2026 Apr 26 17:58 | 2026 Apr 26 13:21:24 | 63.3947 | 0.02708 | 14.9418 | 7.2798 | 353.1988 | 13.45457 | – |
| 2026 Apr 25 17:58 | 2026 Apr 25 12:23:02 | 63.3948 | 0.02707 | 15.1203 | 7.2809 | 353.1988 | 13.45457 | – |
| 2026 Apr 24 17:59 | 2026 Apr 24 07:50:36 | 63.3950 | 0.02706 | 15.3242 | 7.2814 | 353.1988 | 13.45457 | – |
| 2026 Apr 23 17:57 | 2026 Apr 23 06:52:13 | 63.3952 | 0.02705 | 15.5027 | 7.2751 | 353.1988 | 13.45457 | – |
| 2026 Apr 22 17:57 | 2026 Apr 22 07:40:53 | 63.3954 | 0.02705 | 15.6684 | 7.2739 | 353.1988 | 13.45457 | – |
| 2026 Apr 21 17:57 | 2026 Apr 21 12:03:35 | 63.3953 | 0.02704 | 15.8086 | 7.2764 | 353.1988 | 13.45457 | – |
| 2026 Apr 20 17:57 | 2026 Apr 20 12:52:14 | 63.3952 | 0.02703 | 15.9744 | 7.2766 | 353.1988 | 13.45457 | – |
| 2026 Apr 19 17:58 | 2026 Apr 19 11:53:51 | 63.3949 | 0.02702 | 16.1529 | 7.2745 | 353.1988 | 13.45457 | – |
| 2026 Apr 18 17:56 | 2026 Apr 18 07:21:26 | 63.3945 | 0.02701 | 16.3568 | 7.2748 | 353.1988 | 13.45457 | – |
| 2026 Apr 16 17:57 | 2026 Apr 16 07:11:42 | 63.3940 | 0.02699 | 16.7011 | 7.2742 | 353.1988 | 13.45457 | – |
| 2026 Apr 14 17:57 | 2026 Apr 14 12:23:04 | 63.3941 | 0.02698 | 17.0071 | 7.2723 | 353.1988 | 13.45457 | – |
| 2026 Apr 13 17:57 | 2026 Apr 13 06:03:36 | 63.3942 | 0.02697 | 17.2238 | 7.2689 | 353.1988 | 13.45457 | – |
| 2026 Apr 12 17:57 | 2026 Apr 12 12:13:20 | 63.3943 | 0.02696 | 17.3513 | 7.2685 | 353.1988 | 13.45457 | – |
| 2026 Apr 11 17:57 | 2026 Apr 11 13:01:59 | 63.3946 | 0.02695 | 17.5170 | 7.2677 | 353.1988 | 13.45457 | – |
| 2026 Apr 10 17:58 | 2026 Apr 10 06:42:32 | 63.3945 | 0.02694 | 17.7338 | 7.2621 | 353.1988 | 13.45457 | – |
| 2026 Apr 09 18:01 | 2026 Apr 09 07:31:11 | 63.3946 | 0.02693 | 17.8995 | 7.2617 | 353.1988 | 13.45457 | – |
| 2026 Apr 08 17:57 | 2026 Apr 08 06:32:49 | 63.3944 | 0.02693 | 18.0780 | 7.2593 | 353.1988 | 13.45457 | – |
| 2026 Apr 07 17:57 | 2026 Apr 07 05:34:26 | 63.3942 | 0.02692 | 18.2565 | 7.2559 | 353.1988 | 13.45457 | – |